Simultaneous Nadir Overpasses (SNOs) Predictions

Prediction of SNOs between GOES-16 and NOAA-20 Satellite Orbit:

Table of predicted SNOs for the next 14.0 days since TLE Epoch: 9/23/2023
Index Date Time (GOES-16) GOES-16 Lat,Lon NOAA-20 Lat,Lon Distance(km) Time Diff (sec)
1 09/23/2023 06:31:41 0.06, -75.21 0.36, -76.54 151.40 2
2 09/24/2023 06:11:37 0.06, -75.21 -0.66, -72.01 365.46 80
3 09/25/2023 18:33:33 -0.05, -75.22 -0.49, -77.31 237.94 80
4 09/26/2023 18:17:26 -0.04, -75.23 0.48, -72.77 279.53 80
5 09/28/2023 06:36:33 0.04, -75.24 0.69, -78.04 319.33 80
6 09/29/2023 06:17:47 0.04, -75.25 -0.35, -73.51 198.71 80
7 09/30/2023 18:39:41 -0.04, -75.27 -0.85, -78.80 403.05 80
8 10/01/2023 18:23:36 -0.04, -75.29 0.18, -74.27 115.43 80
9 10/03/2023 06:45:22 0.04, -75.31 0.97, -79.54 482.08 80
10 10/04/2023 06:23:56 0.04, -75.32 -0.01, -75.00 36.54 80
11 10/06/2023 18:27:05 -0.03, -75.37 -0.13, -75.77 45.83 80
